{"data":{"norad_id":57892,"epoch":"2026-05-24T22:58:11.868384Z","epoch_age_seconds":88832,"freshness":"FRESH","line1":"1 57892U 23146B   26144.95708181  .00000871  00000+0  41181-4 0  9997","line2":"2 57892  42.9995 243.2073 0001154 278.7652  81.3069 15.27577924148728","mean_motion":15.27577924,"eccentricity":0.0001154,"inclination_deg":42.9995,"raan_deg":243.2073,"arg_perigee_deg":278.7652,"mean_anomaly_deg":81.3069,"bstar":4.1181e-5,"rev_number":14872,"period_min":94.266876823496,"perigee_km":482.26353074469,"apogee_km":483.84709393037,"semimajor_km":6861.1923123375,"source":"CELESTRAK","updated_at":"2026-05-25T13:38:18.451348Z"}}